Weather History for Sacramento, CA

Change the Weather History Date:

Sunday, October 3, 2010

  Actual Average Record
Temperature  
Mean Temperature 66 °F -  
Max Temperature 77 °F 83 °F 99 °F (1987)
Min Temperature 57 °F 53 °F 42 °F (1954)
Degree Days  
Heating Degree Days 0    
Cooling Degree Days 1    
Growing Degree Days 16 (Base 50)    
Moisture  
Dew Point 51 °F    
Average Humidity 61    
Maximum Humidity 81    
Minimum Humidity 45    
Precipitation  
Precipitation 0.00 in 0.02 in 0.08 in (2008)
Month to date precipitation 0.05  
Year to date precipitation 12.29  
Since 1 July precipitation 0.39  
Sea Level Pressure  
Sea Level Pressure 29.90 in    
Wind  
Wind Speed 8 mph (SSW)    
Max Wind Speed 20 mph    
Max Gust Speed 25 mph    
Visibility 10 miles    
Events      
T = Trace of Precipitation, MM = Missing Value Source: NWS Daily Summary

Daily Weather History Graph

Daily Weather History Graph

Search for Another Location

Airport:

Trip Planner

Search our weather history database for the weather conditions in past years. The results will help you decide how hot, cold, wet, or windy it might be!

Date:

Astronomy

Oct. 03, 2010 Rise Set
Actual Time 7:03 AM PDT 6:45 PM PDT
Civil Twilight 6:37 AM PDT 7:12 PM PDT
Nautical Twilight 6:06 AM PDT 7:42 PM PDT
Astronomical Twilight 5:35 AM PDT 8:13 PM PDT
Moon 2:09 AM PDT (10/3) 4:10 PM PDT (10/3)
Length of Visible Light 12h 34m
Length of Day
11h 41m
Waning Crescent, 22% of the Moon is Illuminated
Oct 3
Waning Crescent
Oct 7
New
Oct 14
First Quarter
Oct 22
Full
Oct 30
Last Quarter

Hourly Weather History & Observations

Time (PDT) Temp. Dew Point Humidity Pressure Visibility Wind Dir Wind Speed Gust Speed Precip Events Conditions
12:53 AM 66.9 °F 48.0 °F 51% 29.88 in 10.0 mi SSE 4.6 mph - N/A   Clear
1:53 AM 66.9 °F 48.0 °F 51% 29.88 in 10.0 mi South 4.6 mph - N/A   Clear
2:53 AM 66.0 °F 48.9 °F 54% 29.88 in 10.0 mi South 5.8 mph - N/A   Clear
3:53 AM 64.0 °F 48.9 °F 58% 29.89 in 10.0 mi South 8.1 mph - N/A   Clear
4:53 AM 63.0 °F 48.9 °F 60% 29.89 in 10.0 mi SSW 9.2 mph - N/A   Clear
5:53 AM 61.0 °F 50.0 °F 67% 29.91 in 10.0 mi SSW 6.9 mph - N/A   Partly Cloudy
6:53 AM 60.1 °F 51.1 °F 72% 29.93 in 10.0 mi SSW 6.9 mph - N/A   Partly Cloudy
7:53 AM 59.0 °F 51.1 °F 75% 29.94 in 10.0 mi SSW 6.9 mph - N/A   Partly Cloudy
8:53 AM 61.0 °F 52.0 °F 72% 29.95 in 10.0 mi Variable 4.6 mph - N/A   Partly Cloudy
9:53 AM 63.0 °F 53.1 °F 70% 29.96 in 10.0 mi SSW 6.9 mph 17.3 mph N/A   Clear
10:53 AM 66.9 °F 53.1 °F 61% 29.96 in 10.0 mi South 5.8 mph - N/A   Scattered Clouds
11:53 AM 71.1 °F 54.0 °F 55% 29.95 in 10.0 mi SSW 8.1 mph - N/A   Partly Cloudy
12:53 PM 71.1 °F 54.0 °F 55% 29.94 in 10.0 mi WSW 8.1 mph - N/A   Clear
1:53 PM 73.9 °F 54.0 °F 50% 29.91 in 10.0 mi SSW 9.2 mph - N/A   Clear
2:53 PM 75.9 °F 53.1 °F 45% 29.90 in 10.0 mi SW 13.8 mph - N/A   Mostly Cloudy
3:53 PM 75.9 °F 53.1 °F 45% 29.88 in 10.0 mi SW 13.8 mph - N/A   Mostly Cloudy
4:53 PM 73.9 °F 51.1 °F 45% 29.88 in 10.0 mi SW 16.1 mph 21.9 mph N/A   Clear
5:53 PM 71.1 °F 50.0 °F 47% 29.87 in 10.0 mi SW 10.4 mph 19.6 mph N/A   Clear
6:53 PM 66.0 °F 48.9 °F 54% 29.87 in 10.0 mi SW 19.6 mph 25.3 mph N/A   Clear
7:53 PM 62.1 °F 51.1 °F 67% 29.88 in 10.0 mi SW 11.5 mph 19.6 mph N/A   Clear
8:53 PM 57.9 °F 51.1 °F 78% 29.89 in 10.0 mi SSW 8.1 mph 17.3 mph N/A   Clear
9:53 PM 57.0 °F 51.1 °F 81% 29.89 in 10.0 mi SSW 8.1 mph - N/A   Clear
10:53 PM 57.0 °F 51.1 °F 81% 29.90 in 10.0 mi SSW 9.2 mph 17.3 mph N/A   Clear
11:53 PM 57.0 °F 51.1 °F 81% 29.89 in 10.0 mi South 8.1 mph - N/A   Partly Cloudy